TEJ506 SCEL-SAME

Flight info

Callsign TEJ506
Flight time 0h 31m
Altitude 25000
Route NEBEG7C NEBEG NEBEG2Q
Aircraft A320/M-SDE3FGHIRWY/LB1

Departure

Time 2026-05-06 22:25
Airport Comodoro Arturo Merino Benítez International Airport (SCEL)

Arrival

Time 2026-05-06 22:56
Airport Governor Francisco Gabrielli International Airport (SAME)
Time Latitude Longitude Altitude Speed Heading
2026-05-06 21:59 -33.39611 -70.79805 1565 ft 0 kts 176°
2026-05-06 22:14 -33.39597 -70.79806 1565 ft 4 kts 176°
2026-05-06 22:14 -33.39570 -70.79807 1565 ft 4 kts 176°
2026-05-06 22:14 -33.39548 -70.79809 1565 ft 4 kts 190°
2026-05-06 22:14 -33.39528 -70.79794 1565 ft 4 kts 253°
2026-05-06 22:15 -33.39525 -70.79768 1565 ft 0 kts 267°
2026-05-06 22:18 -33.39504 -70.79791 1565 ft 8 kts 356°
2026-05-06 22:18 -33.39437 -70.79794 1565 ft 10 kts 358°
2026-05-06 22:18 -33.39374 -70.79801 1565 ft 8 kts 340°
2026-05-06 22:19 -33.39346 -70.79842 1565 ft 5 kts 287°
2026-05-06 22:19 -33.39344 -70.79878 1565 ft 3 kts 271°
2026-05-06 22:19 -33.39344 -70.79898 1565 ft 1 kts 271°
2026-05-06 22:19 -33.39343 -70.79932 1565 ft 11 kts 271°
2026-05-06 22:20 -33.39282 -70.80047 1566 ft 24 kts 333°
2026-05-06 22:20 -33.39071 -70.80069 1567 ft 37 kts 357°
2026-05-06 22:20 -33.38771 -70.80088 1567 ft 48 kts 359°
2026-05-06 22:20 -33.38442 -70.80106 1567 ft 46 kts 357°
2026-05-06 22:21 -33.38135 -70.80121 1566 ft 43 kts 357°
2026-05-06 22:21 -33.37848 -70.80136 1566 ft 40 kts 357°
2026-05-06 22:21 -33.37581 -70.80145 1566 ft 37 kts 358°
2026-05-06 22:21 -33.37333 -70.80163 1567 ft 34 kts 357°
2026-05-06 22:22 -33.37149 -70.80186 1567 ft 21 kts 336°
2026-05-06 22:22 -33.37109 -70.80249 1569 ft 0 kts 282°
2026-05-06 22:23 -33.37107 -70.80261 1570 ft 4 kts 281°
2026-05-06 22:23 -33.37107 -70.80297 1572 ft 4 kts 262°
2026-05-06 22:23 -33.37120 -70.80334 1574 ft 8 kts 236°
2026-05-06 22:23 -33.37196 -70.80373 1573 ft 11 kts 179°
2026-05-06 22:24 -33.37222 -70.80371 1573 ft 0 kts 176°
2026-05-06 22:24 -33.37408 -70.80359 1574 ft 64 kts 178°
2026-05-06 22:24 -33.38054 -70.80331 1572 ft 119 kts 177°
2026-05-06 22:24 -33.38671 -70.80298 1575 ft 148 kts 178°
2026-05-06 22:25 -33.40121 -70.80260 2226 ft 157 kts 184°
2026-05-06 22:25 -33.40844 -70.80323 2685 ft 158 kts 183°
2026-05-06 22:25 -33.42403 -70.80261 3222 ft 184 kts 178°
2026-05-06 22:25 -33.43304 -70.80191 3467 ft 200 kts 178°
2026-05-06 22:26 -33.44778 -70.80073 3853 ft 223 kts 178°
2026-05-06 22:26 -33.46394 -70.79951 4324 ft 243 kts 178°
2026-05-06 22:26 -33.48129 -70.79831 4826 ft 264 kts 178°
2026-05-06 22:26 -33.50004 -70.79709 5555 ft 275 kts 178°
2026-05-06 22:27 -33.51945 -70.79591 6429 ft 282 kts 179°
2026-05-06 22:27 -33.53927 -70.79462 7257 ft 288 kts 178°
2026-05-06 22:27 -33.55946 -70.79256 8096 ft 294 kts 176°
2026-05-06 22:27 -33.58004 -70.79001 8960 ft 299 kts 176°
2026-05-06 22:28 -33.60093 -70.78727 9819 ft 304 kts 176°
2026-05-06 22:28 -33.62228 -70.78447 10376 ft 319 kts 176°
2026-05-06 22:28 -33.64524 -70.78156 10632 ft 343 kts 176°
2026-05-06 22:28 -33.66970 -70.77853 10879 ft 364 kts 176°
2026-05-06 22:29 -33.69488 -70.77545 11464 ft 371 kts 177°
2026-05-06 22:29 -33.72075 -70.77229 12175 ft 376 kts 177°
2026-05-06 22:29 -33.74699 -70.76908 12891 ft 380 kts 177°
2026-05-06 22:29 -33.77294 -70.76172 13573 ft 390 kts 160°
2026-05-06 22:30 -33.79618 -70.74436 14217 ft 399 kts 139°
2026-05-06 22:30 -33.81372 -70.71833 14801 ft 406 kts 118°
2026-05-06 22:30 -33.82313 -70.68638 15365 ft 408 kts 97°
2026-05-06 22:30 -33.82399 -70.65238 15928 ft 409 kts 85°
2026-05-06 22:31 -33.82289 -70.61806 16511 ft 413 kts 85°
2026-05-06 22:31 -33.82177 -70.58324 17095 ft 418 kts 85°
2026-05-06 22:31 -33.82069 -70.54805 17705 ft 423 kts 84°
2026-05-06 22:31 -33.81963 -70.51287 18305 ft 429 kts 84°
2026-05-06 22:32 -33.81856 -70.47681 18883 ft 434 kts 85°
2026-05-06 22:32 -33.81749 -70.44032 19407 ft 439 kts 85°
2026-05-06 22:32 -33.81640 -70.40335 19955 ft 445 kts 84°
2026-05-06 22:32 -33.81526 -70.36598 20510 ft 450 kts 85°
2026-05-06 22:33 -33.81407 -70.32822 21057 ft 455 kts 84°
2026-05-06 22:33 -33.81284 -70.29002 21527 ft 460 kts 84°
2026-05-06 22:33 -33.81161 -70.25129 22018 ft 465 kts 84°
2026-05-06 22:33 -33.81037 -70.21240 22434 ft 468 kts 84°
2026-05-06 22:34 -33.80911 -70.17310 22827 ft 473 kts 84°
2026-05-06 22:34 -33.80777 -70.13325 23234 ft 478 kts 85°
2026-05-06 22:34 -33.80641 -70.09316 23678 ft 482 kts 85°
2026-05-06 22:34 -33.80505 -70.05270 24016 ft 486 kts 84°
2026-05-06 22:35 -33.80372 -70.01196 24317 ft 491 kts 84°
2026-05-06 22:35 -33.80236 -69.97072 24645 ft 496 kts 84°
2026-05-06 22:35 -33.80097 -69.92902 24961 ft 500 kts 84°
2026-05-06 22:35 -33.80120 -69.88718 25042 ft 507 kts 92°
2026-05-06 22:36 -33.80526 -69.84507 25060 ft 518 kts 96°
2026-05-06 22:36 -33.80977 -69.80190 25026 ft 522 kts 95°
2026-05-06 22:36 -33.81426 -69.75854 25034 ft 523 kts 95°
2026-05-06 22:36 -33.81869 -69.71512 25014 ft 523 kts 95°
2026-05-06 22:37 -33.82302 -69.67165 25003 ft 524 kts 95°
2026-05-06 22:37 -33.82728 -69.62801 24978 ft 524 kts 95°
2026-05-06 22:37 -33.83148 -69.58435 24960 ft 522 kts 95°
2026-05-06 22:37 -33.83561 -69.54103 24950 ft 522 kts 95°
2026-05-06 22:38 -33.83974 -69.49781 24927 ft 520 kts 95°
2026-05-06 22:38 -33.84392 -69.45459 24891 ft 519 kts 95°
2026-05-06 22:38 -33.84813 -69.41138 24870 ft 519 kts 95°
2026-05-06 22:38 -33.85231 -69.36835 24864 ft 518 kts 95°
2026-05-06 22:39 -33.85609 -69.32910 24844 ft 518 kts 95°
2026-05-06 22:39 -33.86007 -69.28756 24829 ft 517 kts 95°
2026-05-06 22:39 -33.86416 -69.24463 24821 ft 516 kts 95°
2026-05-06 22:39 -33.86819 -69.20218 24813 ft 515 kts 95°
2026-05-06 22:40 -33.87224 -69.15943 24809 ft 515 kts 95°
2026-05-06 22:40 -33.87630 -69.11658 24790 ft 514 kts 95°
2026-05-06 22:40 -33.88033 -69.07382 24787 ft 513 kts 95°
2026-05-06 22:40 -33.88430 -69.03136 24580 ft 505 kts 95°
2026-05-06 22:41 -33.87907 -68.94818 22420 ft 496 kts 65°
2026-05-06 22:41 -33.86312 -68.91234 21359 ft 474 kts 48°
2026-05-06 22:41 -33.84066 -68.88526 20578 ft 440 kts 31°
2026-05-06 22:42 -33.81524 -68.86744 19918 ft 410 kts 16°
2026-05-06 22:42 -33.78877 -68.85798 19273 ft 385 kts
2026-05-06 22:42 -33.76309 -68.85496 18712 ft 372 kts 358°
2026-05-06 22:42 -33.73718 -68.85264 18143 ft 372 kts 358°
2026-05-06 22:43 -33.71124 -68.85035 17526 ft 374 kts 359°
2026-05-06 22:43 -33.68538 -68.84802 16972 ft 371 kts 359°
2026-05-06 22:43 -33.65976 -68.84567 16402 ft 367 kts 359°
2026-05-06 22:43 -33.63440 -68.84336 15847 ft 364 kts 359°
2026-05-06 22:44 -33.60910 -68.84107 15267 ft 363 kts 360°
2026-05-06 22:44 -33.58397 -68.83880 14684 ft 361 kts 360°
2026-05-06 22:44 -33.56254 -68.83689 14138 ft 361 kts
2026-05-06 22:44 -33.53755 -68.83464 13547 ft 360 kts
2026-05-06 22:45 -33.51257 -68.83239 12894 ft 359 kts
2026-05-06 22:45 -33.48773 -68.83014 12273 ft 356 kts
2026-05-06 22:45 -33.46341 -68.82793 11678 ft 354 kts
2026-05-06 22:45 -33.43929 -68.82572 11069 ft 343 kts
2026-05-06 22:46 -33.41559 -68.82354 10481 ft 337 kts
2026-05-06 22:46 -33.39266 -68.82143 10309 ft 324 kts
2026-05-06 22:46 -33.37055 -68.81940 10196 ft 312 kts
2026-05-06 22:46 -33.34936 -68.81746 10069 ft 300 kts
2026-05-06 22:47 -33.32872 -68.81557 9837 ft 294 kts
2026-05-06 22:47 -33.30851 -68.81376 9636 ft 288 kts
2026-05-06 22:47 -33.28855 -68.81198 9517 ft 288 kts
2026-05-06 22:47 -33.26861 -68.81018 9379 ft 287 kts
2026-05-06 22:48 -33.24870 -68.80837 9253 ft 287 kts
2026-05-06 22:48 -33.23093 -68.80677 8774 ft 292 kts
2026-05-06 22:48 -33.21061 -68.80496 8198 ft 287 kts
2026-05-06 22:48 -33.19077 -68.80319 7537 ft 285 kts
2026-05-06 22:49 -33.17130 -68.80145 6969 ft 282 kts
2026-05-06 22:49 -33.15226 -68.79973 6727 ft 266 kts
2026-05-06 22:49 -33.13440 -68.79811 6598 ft 247 kts
2026-05-06 22:49 -33.11839 -68.79680 6620 ft 220 kts
2026-05-06 22:50 -33.10371 -68.79632 6446 ft 203 kts 359°
2026-05-06 22:50 -33.09035 -68.79619 6319 ft 179 kts 359°
2026-05-06 22:50 -33.07886 -68.79611 6254 ft 157 kts 359°
2026-05-06 22:50 -33.06813 -68.79604 6208 ft 152 kts 359°
2026-05-06 22:51 -33.05758 -68.79596 6181 ft 151 kts 359°
2026-05-06 22:51 -33.04702 -68.79593 6045 ft 152 kts 359°
2026-05-06 22:51 -33.03651 -68.79586 5866 ft 150 kts 359°
2026-05-06 22:51 -33.02604 -68.79575 5676 ft 150 kts 359°
2026-05-06 22:52 -33.01565 -68.79561 5487 ft 149 kts 360°
2026-05-06 22:52 -33.00533 -68.79546 5292 ft 148 kts 360°
2026-05-06 22:52 -32.99502 -68.79531 5103 ft 148 kts
2026-05-06 22:52 -32.98479 -68.79516 4904 ft 147 kts
2026-05-06 22:53 -32.97456 -68.79501 4731 ft 146 kts
2026-05-06 22:53 -32.96451 -68.79486 4540 ft 146 kts
2026-05-06 22:53 -32.95438 -68.79471 4352 ft 146 kts
2026-05-06 22:53 -32.94425 -68.79455 4159 ft 145 kts
2026-05-06 22:54 -32.93412 -68.79440 4009 ft 146 kts 359°
2026-05-06 22:54 -32.92385 -68.79425 3861 ft 150 kts 358°
2026-05-06 22:54 -32.91336 -68.79410 3721 ft 151 kts 357°
2026-05-06 22:54 -32.90291 -68.79394 3545 ft 150 kts 357°
2026-05-06 22:55 -32.89249 -68.79378 3346 ft 150 kts 357°
2026-05-06 22:55 -32.88206 -68.79364 3119 ft 150 kts 355°
2026-05-06 22:55 -32.87167 -68.79344 2868 ft 147 kts 358°
2026-05-06 22:55 -32.86152 -68.79331 2645 ft 144 kts 358°
2026-05-06 22:56 -32.85151 -68.79318 2420 ft 143 kts
2026-05-06 22:56 -32.84157 -68.79313 2251 ft 142 kts
2026-05-06 22:56 -32.83355 -68.79308 2235 ft 76 kts
2026-05-06 22:56 -32.83164 -68.79333 2236 ft 0 kts 305°
2026-05-06 22:57 -32.83163 -68.79335 2236 ft 1 kts 304°
2026-05-06 22:57 -32.83156 -68.79351 2233 ft 4 kts 294°
2026-05-06 22:57 -32.83162 -68.79407 2234 ft 8 kts 232°
2026-05-06 22:58 -32.83206 -68.79466 2234 ft 11 kts 226°
2026-05-06 22:58 -32.83220 -68.79519 2230 ft 3 kts 346°
2026-05-06 22:58 -32.83187 -68.79518 2229 ft 6 kts
2026-05-06 22:58 -32.83139 -68.79515 2230 ft 8 kts
2026-05-06 22:59 -32.83077 -68.79512 2230 ft 10 kts
2026-05-06 22:59 -32.83006 -68.79541 2228 ft 12 kts 321°
2026-05-06 22:59 -32.82940 -68.79614 2231 ft 14 kts 299°
2026-05-06 22:59 -32.82894 -68.79708 2228 ft 14 kts 345°
2026-05-06 23:00 -32.82825 -68.79709 2229 ft 6 kts
2026-05-06 23:00 -32.82798 -68.79742 2229 ft 7 kts 267°
2026-05-06 23:00 -32.82800 -68.79772 2229 ft 1 kts 268°
2026-05-06 23:00 -32.82800 -68.79777 2229 ft 0 kts 268°